Stations météo

Publicité
Figari, France (7780): Température de l'air & dewpoint: 26.03.2020 09:00:00 - 01.04.2020 09:00:00 (CEST)Figari, France (7780): Température de l'air 5cm: 26.03.2020 09:00:00 - 01.04.2020 09:00:00 (CEST)Figari, France (7780): Vitesse du vent & gusts: 26.03.2020 09:00:00 - 01.04.2020 09:00:00 (CEST)Figari, France (7780): Direction du vent: 26.03.2020 09:00:00 - 01.04.2020 09:00:00 (CEST)Figari, France (7780): reduced air pressure: 26.03.2020 09:00:00 - 01.04.2020 09:00:00 (CEST)Figari, France (7780): visibility: 26.03.2020 09:00:00 - 01.04.2020 09:00:00 (CEST)Figari, France (7780): Quantités de précipitations: 26.03.2020 09:00:00 - 01.04.2020 09:00:00 (CEST)
Date & Time tt [°C] td [°C] tt 5cm [°C] ff [km/h] ff [knt] fx [km/h] fx [knt] dd ppp [hPa] vv [km] rr [mm]
01.04.2020 09:00:00 9,6 -5,5 7,1 40 21 69 37 ENE 1018,5 39 0,0
01.04.2020 08:00:00 8,5 -5,7 6,7 34 18 64 34 ENE 1018,3 17 0,0
01.04.2020 07:00:00 8,4 -5,5 6,9 37 20 70 38 ENE 1018,2 60 0,0
01.04.2020 06:00:00 8,2 -3,7 7,0 35 19 71 38 ENE 1017,8 60 0,0
01.04.2020 05:00:00 8,7 -2,6 6,0 36 20 67 36 ENE 1018,1 60 0,0
01.04.2020 04:00:00 9,1 -0,3 7,8 39 21 71 38 ENE 1018,3 60 0,0
01.04.2020 03:00:00 9,8 0,7 8,6 31 17 60 33 ENE 1018,2 60 0,0
01.04.2020 02:00:00 10,3 2,1 8,7 29 16 59 32 ENE 1018,2 57 0,0
01.04.2020 01:00:00 10,4 2,5 7,0 29 16 57 31 ENE 1018,0 59 0,0
01.04.2020 00:00:00 9,7 3,0 6,5 25 13 53 29 ENE 1017,9 60 0,0
31.03.2020 23:00:00 8,1 4,1 6,6 22 12 39 21 NE 1017,6 60 0,0
31.03.2020 22:00:00 8,5 5,2 7,3 24 13 40 22 NE 1017,3 60 0,0
31.03.2020 21:00:00 9,0 5,7 7,9 23 12 44 24 ENE 1017,0 58 0,0
31.03.2020 20:00:00 10,3 7,9 9,5 26 14 47 26 ENE 1016,2 60 0,0
31.03.2020 19:00:00 11,2 8,6 10,9 25 14 51 27 ENE 1015,9 49 0,0
31.03.2020 18:00:00 12,5 9,1 13,3 29 15 54 29 ENE 1015,7 60 0,0
31.03.2020 17:00:00 13,7 9,7 15,1 24 13 48 26 ENE 1015,7 25 0,0
31.03.2020 16:00:00 16,6 10,9 18,2 21 11 40 22 ENE 1015,2 19 0,0
31.03.2020 15:00:00 17,0 11,3 17,5 24 13 41 22 NE 1015,1 17 0,0
31.03.2020 14:00:00 15,6 11,6 17,2 18 10 32 18 NE 1015,7 25 0,0
31.03.2020 13:00:00 16,2 9,8 15,9 19 11 32 18 NE 1016,0 29 0,0
31.03.2020 12:00:00 17,0 10,1 16,6 11 6 25 14 NE 1015,8 27 0,0
31.03.2020 11:00:00 16,2 10,3 15,0 8 4 18 10 ENE 1015,9 46 0,0
31.03.2020 10:00:00 13,8 10,6 11,0 3 2 8 5 NE 1015,8 19 0,0
31.03.2020 09:00:00 10,1 9,9 6,0 0 0 5 3 N 1015,7 12 0,0
31.03.2020 08:00:00 6,9 6,8 3,4 4 2 9 5 NNE 1015,3 11 0,0
31.03.2020 07:00:00 4,1 3,8 2,6 4 2 6 4 ESE 1015,0 8 0,0
31.03.2020 06:00:00 4,6 4,3 1,5 7 4 10 6 NE 1014,7 9 0,0
31.03.2020 05:00:00 3,6 3,2 1,7 0 0 7 4 N 1014,5 4,5 0,0
31.03.2020 04:00:00 4,4 4,0 2,6 4 2 6 3 ENE 1014,4 5 0,0
31.03.2020 03:00:00 5,6 5,2 3,6 5 3 8 4 ENE 1014,4 6 0,0
31.03.2020 02:00:00 6,8 6,4 4,3 5 3 8 5 NNE 1014,5 6 0,0
31.03.2020 01:00:00 6,8 5,9 4,6 3 2 7 4 NNE 1014,5 7 0,0
31.03.2020 00:00:00 8,9 8,0 6,2 7 4 15 8 NE 1014,5 8 0,0
30.03.2020 23:00:00 9,0 8,1 7,7 3 1 11 6 SW 1014,2 10 0,0
30.03.2020 22:00:00 9,4 8,3 8,1 2 1 8 4 S 1014,0 11 0,0
30.03.2020 21:00:00 10,5 8,8 8,4 5 3 13 7 S 1013,7 11 0,0
30.03.2020 20:00:00 12,9 10,1 9,8 9 5 18 10 WSW 1013,1 14 0,0
30.03.2020 19:00:00 14,6 9,4 13,0 5 3 10 5 WSW 1012,8 26 0,0
30.03.2020 18:00:00 14,7 8,9 13,6 9 5 30 16 NE 1012,6 54 0,0
30.03.2020 17:00:00 17,3 9,7 18,8 9 5 25 14 SSW 1012,3 18 0,0
30.03.2020 16:00:00 17,5 10,1 21,0 16 9 28 15 SSW 1012,3 16 0,0
30.03.2020 15:00:00 18,2 9,3 23,0 20 11 29 16 SSW 1012,4 19 0,0
30.03.2020 14:00:00 18,3 10,1 22,8 19 10 28 15 SW 1012,6 18 0,0
30.03.2020 13:00:00 18,2 10,6 19,1 14 8 22 12 SW 1012,9 18 0,0
30.03.2020 12:00:00 17,2 10,1 17,4 7 4 16 9 SW 1013,0 20 0,0
30.03.2020 11:00:00 16,3 9,7 14,6 10 5 23 13 NE 1013,1 34 0,0
30.03.2020 10:00:00 14,5 9,5 10,5 12 6 22 12 NE 1012,6 20 0,0
30.03.2020 09:00:00 10,3 9,8 4,1 4 2 9 5 NE 1012,4 42 0,0
30.03.2020 08:00:00 5,6 5,3 2,4 9 5 11 6 NE 1012,1 19 0,0
30.03.2020 07:00:00 4,4 3,8 2,8 6 4 10 6 NNE 1011,7 12 0,0
30.03.2020 06:00:00 5,3 5,2 2,4 7 4 10 5 NE 1011,7 8 0,0
30.03.2020 05:00:00 4,4 4,3 0,9 8 4 9 5 NE 1011,6 7 0,0
30.03.2020 04:00:00 2,7 2,4 1,3 3 2 5 3 SW 1011,8 10 0,0
30.03.2020 03:00:00 3,4 3,1 1,0 3 1 6 3 W 1012,2 10 0,0
30.03.2020 02:00:00 3,7 3,3 1,3 4 2 10 6 SW 1012,6 8 0,0
30.03.2020 01:00:00 3,5 2,9 1,5 3 2 5 3 WSW 1012,9 11 0,0
30.03.2020 00:00:00 4,3 3,7 2,1 2 1 5 3 W 1013,3 11 0,0
29.03.2020 23:00:00 5,8 5,1 3,0 5 3 7 4 N 1013,3 11 0,0
29.03.2020 22:00:00 7,8 7,0 4,1 4 2 13 7 N 1013,2 16 0,0
29.03.2020 21:00:00 9,3 8,1 6,1 8 4 11 6 SW 1013,0 18 0,0
29.03.2020 20:00:00 11,8 8,3 9,1 7 4 18 10 SSW 1012,3 29 0,0
29.03.2020 19:00:00 15,1 8,8 12,4 12 6 27 15 SSW 1011,7 33 0,0
29.03.2020 18:00:00 17,0 7,6 15,2 16 9 27 14 SSW 1011,7 37 0,0
29.03.2020 17:00:00 18,1 7,5 17,9 16 9 26 14 SSW 1011,9 20 0,0
29.03.2020 16:00:00 18,1 6,9 20,3 13 7 25 14 SSW 1012,4 18 0,0
29.03.2020 15:00:00 17,8 9,4 21,5 14 7 29 16 SW 1012,9 18 0,0
29.03.2020 14:00:00 17,0 10,6 20,7 14 8 27 15 S 1013,5 19 0,0
29.03.2020 13:00:00 16,5 11,0 20,1 16 9 26 14 SSW 1013,9 57 0,0
29.03.2020 12:00:00 16,5 10,6 18,5 13 7 26 14 SSW 1014,1 55 0,0
29.03.2020 11:00:00 15,9 10,2 14,3 16 9 24 13 SSW 1014,2 47 0,0
29.03.2020 10:00:00 12,7 10,4 8,5 4 2 7 4 WNW 1014,5 35 0,0
29.03.2020 09:00:00 9,0 8,7 1,2 0 0 5 3 N 1014,3 19 0,0
29.03.2020 08:00:00 3,0 2,9 0,5 3 1 8 5 ENE 1014,6 12 0,0
29.03.2020 07:00:00 1,3 1,0 0,3 3 2 7 4 NE 1014,7 1,5 0,0
29.03.2020 06:00:00 1,9 1,6 0,4 4 2 7 4 NE 1014,9 7 0,0
29.03.2020 05:00:00 2,6 2,3 0,8 4 2 9 5 NE 1015,1 11 0,0
29.03.2020 04:00:00 2,9 2,6 1,0 3 2 8 4 NE 1015,4 3,2 0,0
29.03.2020 03:00:00 3,1 2,7 1,4 3 2 8 5 E 1015,7 8 0,0
29.03.2020 02:00:00 4,2 3,8 2,1 5 3 8 4 NE 1016,0 11 0,0
29.03.2020 01:00:00 5,4 5,0 3,4 5 3 8 4 NE 1015,7 15 0,0
29.03.2020 00:00:00 6,6 5,9 4,3 5 3 7 4 NNE 1015,6 14 0,0
28.03.2020 23:00:00 8,2 7,1 5,1 4 2 13 7 N 1015,6 38 0,0
28.03.2020 22:00:00 9,1 8,2 5,3 5 3 14 7 NE 1015,2 26 0,0
28.03.2020 21:00:00 9,8 8,4 6,1 7 4 12 6 NNE 1014,7 51 0,0
28.03.2020 20:00:00 12,5 9,0 9,4 3 2 14 8 E 1013,8 60 0,0
28.03.2020 19:00:00 16,4 8,4 12,5 5 3 20 11 NNW 1013,3 60 0,0
28.03.2020 18:00:00 16,9 9,3 14,3 13 7 32 17 W 1013,3 60 0,0
28.03.2020 17:00:00 16,1 11,5 14,4 19 11 32 17 SW 1013,6 45 0,0
28.03.2020 16:00:00 13,5 10,5 14,4 9 5 18 10 SSW 1014,2 10 0,4
28.03.2020 15:00:00 15,0 10,6 12,3 11 6 19 10 WSW 1014,7 55 0,6
28.03.2020 14:00:00 12,0 9,9 12,0 14 7 29 15 W 1015,3 4,3 1,6
28.03.2020 13:00:00 13,0 9,3 12,1 18 10 32 17 WNW 1015,2 51 0,0
28.03.2020 12:00:00 17,0 8,4 15,5 9 5 23 12 ESE 1014,8 20 0,0
28.03.2020 11:00:00 15,3 9,2 12,9 10 5 23 12 ENE 1014,8 46 0,0
28.03.2020 10:00:00 13,8 9,6 11,5 13 7 33 18 ENE 1014,7 46 0,0
28.03.2020 09:00:00 11,2 9,3 8,5 13 7 24 13 ENE 1014,3 48 0,0
28.03.2020 08:00:00 8,9 7,7 6,6 10 5 21 12 ENE 1014,1 60 0,0
28.03.2020 07:00:00 7,5 6,8 5,6 12 6 18 10 ENE 1013,8 60 0,0
28.03.2020 06:00:00 7,5 7,1 5,5 10 5 18 10 ENE 1013,7 53 0,0
28.03.2020 05:00:00 7,6 7,0 5,3 12 6 16 9 NNE 1013,8 47 0,0
28.03.2020 04:00:00 8,6 7,8 7,2 10 6 21 11 NNE 1013,8 45 0,0
28.03.2020 03:00:00 9,6 8,5 8,5 14 7 21 12 ENE 1014,0 39 0,0
28.03.2020 02:00:00 10,1 9,0 9,3 13 7 24 13 NE 1014,2 42 0,6
28.03.2020 01:00:00 10,6 9,5 9,7 12 7 25 14 ENE 1014,0 28 0,0
28.03.2020 00:00:00 10,5 9,6 9,7 14 8 22 12 NE 1013,8 17 0,0
27.03.2020 23:00:00 9,9 9,3 9,3 3 2 8 4 N 1013,4 12 0,0
27.03.2020 22:00:00 10,0 9,2 9,3 3 1 10 5 ESE 1012,8 8 1,0
27.03.2020 21:00:00 10,4 9,5 8,9 4 2 18 10 NE 1011,9 5 0,8
27.03.2020 20:00:00 10,6 9,4 9,2 12 7 36 19 ENE 1010,9 28 0,0
27.03.2020 19:00:00 11,1 9,4 9,9 19 11 37 20 ENE 1010,4 30 1,0
27.03.2020 18:00:00 12,7 9,0 10,5 20 11 54 29 ENE 1009,9 18 0,0
27.03.2020 17:00:00 12,1 8,8 10,4 24 13 59 32 ENE 1008,9 16 0,6
27.03.2020 16:00:00 12,8 8,5 11,1 26 14 55 30 ENE 1008,5 40 1,0
27.03.2020 15:00:00 14,2 7,3 11,0 32 17 59 32 ENE 1008,3 20 0,0
27.03.2020 14:00:00 14,4 7,0 12,0 28 15 54 29 ENE 1008,0 52 0,0
27.03.2020 13:00:00 14,6 7,9 11,4 16 9 42 23 ENE 1008,0 56 0,0
27.03.2020 12:00:00 11,5 9,2 11,2 9 5 23 12 SSW 1008,1 60 0,0
27.03.2020 11:00:00 9,7 8,1 9,7 9 5 20 11 S 1008,0 60 0,0
27.03.2020 10:00:00 8,5 7,9 9,5 4 2 10 6 W 1007,7 3,5 1,2
27.03.2020 09:00:00 8,0 7,6 8,1 5 3 10 5 SW 1007,1 57 0,0
27.03.2020 08:00:00 7,0 6,7 7,0 2 1 14 7 NNE 1006,8 12 0,4
27.03.2020 07:00:00 6,6 6,2 6,7 3 2 6 3 ESE 1006,7 8 0,4
27.03.2020 06:00:00 6,6 6,2 6,7 2 1 6 4 NNE 1006,8 7 0,2
27.03.2020 05:00:00 6,7 6,1 6,9 2 1 6 4 E 1007,1 8 0,2
27.03.2020 04:00:00 6,9 6,0 6,8 5 3 19 11 NW 1007,3 14 0,0
27.03.2020 03:00:00 6,8 6,1 6,8 17 9 25 13 SW 1007,5 19 0,0
27.03.2020 02:00:00 6,7 6,0 6,6 4 2 11 6 SW 1008,0 7 0,0
27.03.2020 01:00:00 6,5 5,8 6,5 4 2 11 6 S 1008,2 11 0,0
27.03.2020 00:00:00 6,5 5,9 6,5 4 2 5 3 S 1008,1 9 0,2
26.03.2020 23:00:00 6,6 5,9 6,4 3 2 6 4 N 1008,4 11 0,2
26.03.2020 22:00:00 6,6 5,7 6,0 3 1 6 3 ENE 1008,2 20 0,0
26.03.2020 21:00:00 6,5 5,4 6,1 3 2 6 3 SSE 1007,9 27 0,2
26.03.2020 20:00:00 7,2 5,2 6,9 4 2 8 4 NE 1007,6 28 0,0
26.03.2020 19:00:00 7,7 5,0 7,6 7 4 17 9 NE 1007,3 43 0,0
26.03.2020 18:00:00 7,9 5,4 8,0 10 5 16 9 NE 1007,1 60 0,0
26.03.2020 17:00:00 8,3 5,0 8,5 8 4 20 11 NE 1007,0 60 0,0
26.03.2020 16:00:00 7,9 5,4 8,4 11 6 22 12 NE 1007,2 33 0,2
26.03.2020 15:00:00 8,8 4,4 9,4 5 3 13 7 E 1007,2 43 0,0
26.03.2020 14:00:00 8,4 4,6 8,0 6 3 22 12 ESE 1007,3 11 0,2
26.03.2020 13:00:00 10,4 1,2 12,2 6 4 17 9 SSW 1007,3 60 0,0
26.03.2020 12:00:00 10,5 -0,1 10,6 8 4 18 10 ENE 1007,4 56 0,0
26.03.2020 11:00:00 9,7 1,1 7,5 8 5 19 11 NE 1007,6 58 0,0
26.03.2020 10:00:00 7,8 2,3 1,5 7 4 13 7 ENE 1007,7 60 0,0
26.03.2020 09:00:00 - - - - - - - - - - -

tt = Température de l'air
td = dewpoint
tt 5cm = Température de l'air 5cm
ff = Vitesse du vent
fx = gusts
dd = Direction du vent
ppp = reduced air pressure
vv = visibility
rr = Quantités de précipitations

stations d'obs. à proximité